www.pogodaiklimat.ru
ПОГОДА в Янгстауне
Время
и дата
23:51 24.09
00:51 25.09
01:51 25.09
02:24 25.09
02:51 25.09
03:41 25.09
03:51 25.09
04:51 25.09
05:51 25.09
06:34 25.09
06:51 25.09
07:51 25.09
08:28 25.09
08:51 25.09
09:51 25.09
10:14 25.09
10:30 25.09
10:51 25.09
11:51 25.09
12:36 25.09
12:51 25.09
13:28 25.09
13:51 25.09
14:51 25.09
15:51 25.09
16:22 25.09
16:31 25.09
16:43 25.09
16:51 25.09
17:09 25.09
17:51 25.09
18:17 25.09
18:51 25.09
19:27 25.09
19:51 25.09
20:35 25.09
20:51 25.09
21:24 25.09
21:51 25.09
22:35 25.09
22:51 25.09
23:29 25.09
23:51 25.09
00:51 26.09
01:51 26.09
02:05 26.09
02:40 26.09
02:51 26.09
Ветер
(напр.,м/с)
Видим. Явления Облачность Т
(С)
Тd
(С)
f
(%)
Тe
(С)
Тes
(С)
Комфортность P
(гПа)
Po
(гПа)
Тmin
(С)
Tmax
(С)
R
(мм)
R24
(мм)
S
(см)
Ю 4 16 км 10/2 1500 m
[Ac]
+15.6 +9.4 67 +15 +15 1008.6 966.2
Ю 3 16 км 10/8 1320 m
[Ac]
+15.6 +10.0 69 +15 +15 1007.9 965.6 +12.8 +15.6
Ю 3 16 км 10/2 1350 m
[Ac]
+15.6 +10.6 72 +15 +15 1007.0 964.6
ЮЗ 3 16 км гроза со слабым дождем 10/8 1500 m
[Ac]
+15.0 +11.7 81 +14 +14 964.3
З 5 0 м гроза с дождем, дымка 10/8 570 m
[Ac]
+14.4 +12.8 90 +13 +13 1007.0 964.6
Ю 4 16 км слабый дождь 10/8 540 m
[Ac]
+13.9 +12.8 93 +12 +12 963.3
Ю 3 16 км 10/8 540 m
[Ac]
+13.9 +12.8 93 +13 +13 1005.4 963.0 3.0
Ю 3 16 км 10/5 1440 m
[Ac]
+14.4 +13.3 93 +13 +13 1004.8 962.3
ЮЗ 4 16 км 10/5 1290 m
[Ac]
+14.4 +13.3 93 +13 +13 1004.5 962.0
ЮЗ 5 16 км слабый дождь 10/8 210 m
[Ac]
+15.0 +13.3 90 +14 +14 962.0
ЮЗ 6
{9}
16 км слабый дождь 10/8 210 m
[Ac]
+15.0 +13.3 90 +13 +13 1004.4 962.0 +13.9 +15.6 3.0 3.0
ЮЗ 8
{10}
16 км слабый дождь 8/5 210 m
[Ac]
+15.0 +13.3 90 +13 +13 1003.4 961.0
ЮЗ 6 16 км 10/8 120 m
[Ac]
+14.4 +13.3 93 +12 +12 961.3
ЮЗ 6 16 км слабый дождь 8/8 150 m
[Ac Ci]
+15.0 +13.3 90 +13 +13 1003.8 961.3
ЮЗ 5 16 км 8/8 210 m
[Ac]
+17.2 +14.4 84 +17 +17 1003.3 961.0 0.8
ЮЗ 5 16 км 8/8 270 m
[Ci]
+18.3 +15.0 81 +18 +19 960.7
ЮЗ 7 16 км 8/8 360 m
[Ac Ci]
+17.2 +13.9 81 +16 +17 960.7
ЮЗ 7
{9}
16 км 8/8 450 m
[Ac]
+18.9 +14.4 75 +19 +20 1003.2 961.0
З 4 16 км 8/5 690 m
[Ac]
+18.3 +13.3 73 +19 +21 1002.6 960.4
СЗ 5 14 км гроза со слабым дождем 8/8 540 m
[Ac]
+17.2 +14.4 84 +17 +18 960.1
З 4 16 км слабый дождь 8/8 300 m
[Ac]
+16.1 +13.9 87 +15 +17 1002.2 960.1 +14.4 +18.9 1.0
З 4 16 км 10/8 240 m
[Ac]
+16.7 +14.4 86 +16 +17 960.1
З 5 16 км 8/8 210 m
[Ac]
+17.8 +13.9 78 +17 +19 1002.2 960.1
ЮЗ 4 16 км 8/8 150 m
[Ac Ci]
+15.6 +13.9 90 +15 +16 1003.0 960.7
ЮЗ 5 16 км 10/8 210 m
[Ac Ci]
+16.1 +14.4 90 +15 +15 1003.1 960.7 1.5
З 6 5 км слабый дождь, дымка 10/10 210 м +15.6 +13.9 90 +14 +14 961.3
ЮЗ 5 10 км слабый дождь, дымка 10/10 210 м +15.6 +13.9 90 +14 +14 961.0
З 6
{11}
6 км слабый дождь, дымка 10/10 240 м +15.6 +13.3 86 +14 +14 961.3
З 7
{11}
5 км слабый дождь, дымка 10/10 240 м +15.0 +13.3 90 +13 +13 1004.0 961.7
З 6 13 км слабый дождь 10/8 120 m
[Ac]
+15.0 +13.3 90 +13 +13 961.7
ЮЗ 5 16 км слабый дождь 10/8
[Ac]
+15.0 +13.3 90 +14 +14 1004.4 962.0
З 5 16 км слабый дождь 10/8 180 m
[Ac]
+14.4 +13.3 93 +13 +13 962.3
З 4 16 км 10/5
[Ac]
+14.4 +13.3 93 +13 +13 1004.8 962.3 +14.4 +17.8 2.8
ЮЗ 3 11 км слабый дождь 10/8 270 m
[Ac]
+14.4 +13.3 93 +13 +13 962.3
З 5 11 км слабый дождь 10/8 150 m
[Ac]
+14.4 +13.3 93 +13 +13 1005.0 962.6
ЮЗ 4 11 км слабый дождь 10/10 150 м +14.4 +13.3 93 +13 +13 962.6
З 4 10 км слабый дождь, дымка 10/10 150 м +14.4 +13.3 93 +13 +13 1005.2 962.6
ЮЗ 6 11 км слабый дождь 10/8 180 m
[Ac]
+13.9 +12.8 93 +12 +12 962.6
СЗ 4
{8}
5 км слабый дождь, дымка 10/10 150 м +13.9 +12.8 93 +12 +12 1005.3 963.0 3.8
З 4 13 км слабый дождь 10/10 150 м +13.3 +12.2 93 +12 +12 963.0
ЮЗ 4 16 км 10/10 150 м +13.3 +12.2 93 +12 +12 1005.5 963.0
ЮЗ 5 16 км 10/10 150 м +12.8 +11.7 93 +11 +11 963.0
ЮЗ 4 16 км 10/10 150 м +12.8 +11.7 93 +11 +11 1005.4 963.0
ЮЗ 4 16 км слабый дождь 10/10 150 м +12.8 +12.2 96 +11 +11 1005.2 962.6 +12.8 +14.4 4.1
ЮЗ 4 16 км 10/10 150 м +12.8 +11.7 93 +11 +11 1004.6 962.0
ЮЗ 3 16 км 10/10 150 м +12.8 +11.7 93 +11 +11 962.0
ЮЗ 5 16 км слабый дождь 10/8 180 m
[Ac]
+13.3 +12.2 93 +11 +11 961.7
ЮЗ 5 16 км слабый дождь 10/8 180 m
[Ac]
+13.3 +12.2 93 +11 +11 1003.8 961.3
Местоположение метеостанции Youngstown-Warren Regional Airport: широта 41.2544 долгота -80.6739 высота над уровнем моря 364 м.
В архиве по умолчанию представлена погода в Янгстауне за последние 1-2 суток. Обновление информации о фактической погоде в базе происходит ежечасно! Архивные данные за месяц целиком и за предыдущие месяцы Вы можете получить, выбрав интересующий диапазон дат из раскрывающегося списка и нажав кнопку "Ввод!".
Внимание! Архив погоды МЕТАР в базе сайта по станциям, не включенным в климатический монитор, хранится не более 60 дней. Нет смысла пытаться выбрать более раннюю дату.
*Определитесь, кто Вы:
Внимание! Время в таблицах - местное (без учета летнего времени). Для получения всемирного времени необходимо вычесть поправку, которая равна -5 ч.
Смотрите также архив погоды в соседних городах и на ближайших метеорологических станциях:
Партнеры нашего сайта:      
Пояснения к столбцам:
  • Ветер - указаны скорость ветра в м/с - средняя за 10 мин, порывы в срок и между сроками (в фигурных скобках) и направление, откуда дует ветер: С - северный,
  • СВ - северо-восточный, В - восточный, ЮВ - юго-восточный, Ю - южный, ЮЗ - юго-западный, З - западный, СЗ - северо-западный.
  • Видимость - горизонтальная дальность видимости в метрах или километрах. При видимости от 1 до 10 км при отсутствии осадков обычно наблюдается дымка, при ухудшении видимости до 1 км и менее - туман. В сухую погоду видимость может ухудшаться дымом, пылью или мглою.
  • Явления - указаны атмосферные явления, наблюдавшиеся в срок или в последний час перед сроком; фигурными скобками обозначены явления, наблюдавшиеся между сроками (за 1-3 часа до срока); квадратными скобками обозначены град или гололедные отложения с указанием их диаметра в мм.
  • Облачность - указаны через наклонную черту общая и нижняя облачность в баллах и высота нижней границы облаков в метрах; квадратными скобками обозначены формы облаков: Ci - перистые, Cs - перисто-слоистые, Cc - перисто-кучевые, Ac - высококучевые, As - высокослоистые, Sc - слоисто-кучевые, Ns - слоисто-дождевые, Cu - кучевые, Cb - кучево-дождевые. Подробнее классификацию облаков см. в Атласе облаков (PDF).
  • T - Температура воздуха - температура, измеренная на высоте 2 м над землей.
  • Td - Температура точки росы - температура, при понижении до которой содержащийся в воздухе водяной пар достигнет насыщения.
  • f - Относительная влажность воздуха - влажноcть воздуха, измеренная на высоте 2 м над землей.
  • Te - Эффективная температура - температура, которую ощущает одетый по сезону человек в тени. Характеристика душности погоды. При расчете учитывается влияние влажности воздуха и скорости ветра на теплоощущения человека.
  • Tes - Эффективная температура на солнце - температура, которую ощущает человек, с поправкой на солнечный нагрев. Характеристика знойности погоды. Зависит от высоты солнца над горизонтом, облачности и скорости ветра. Ночью, в пасмурную погоду, а также при ветре 12 м/с и более поправка равна нулю.
  • P - Атмосферное давление - приведенное к уровню моря атмосферное давление.
  • Po - Атмосферное давление - измеренное на уровне метеостанции атмосферное давление.
  • Tmin - Минимальная температура - минимум температуры воздуха на высоте 2 м над землей.
  • Tmax - Максимальная температура - максимум температуры воздуха на высоте 2 м над землей.
  • R - Количество осадков - Количество выпавших осадков за период времени, мм. При наведении курсора мыши на число - период времени, за который выпало указанное количество осадков.
  • R24 - Количество осадков - Количество выпавших осадков за 24 часа, мм.
  • S - Снежный покров - Высота снежного покрова, см. При наведении курсора мыши на число - состояние снежного покрова и степень покрытия местности в баллах.